STARLINK-36619, 67645

Orbit data source: Space-Track

STARLINK-36619, 67645 is a payload satellite owned by SpaceX/Seattle (US) in LEO that was launched on Fri, 30 Jan 2026 UTC via an FALCON 9 launch vehicle from the Air Force Eastern Test Range (AFETR). Payload-class satellites include a variety of spacecraft equipped with specific instruments for various scientific and technological missions. These include communications satellites like Starlink; space stations such as the ISS; scientific satellites like the Hubble; Earth observation satellites from companies like Planet Labs, Umbra, and HawkEye 360; GPS; miniature CubeSats for education and research; and military/defense satellites.

Loading next visibility...
Identifier
67645, 2026-020AE
Orbit
LEO
Country
Flag of USUS
Related business
Manufacturer
SpaceX/Seattle
Mission
Operational Commercial Communications
Bus & Motor
STARLINK V2MO, Unknown motor
Mass
575 kg wet, ~530 kg dry
Launch date (UTC)
2026-01-30 (3 months ago)
Launch vehicle
FALCON 9
Launch site
Air Force Eastern Test Range (AFETR)
Object type
Payload
Rocket body
Debris
Shape & HBR
Box + 2 Pan, 17.7 m
Radar Cross Section
36.964 m²

Expand to show TLE details & history
Last TLE update: 9 hours ago

TLE from 9 hours ago
0 STARLINK-36619
1 67645U 26020AE  26112.08305494  .00025238  00000-0  92288-3 0  9995
2 67645  42.9991 254.3920 0000638 274.2069  85.8710 15.27602080 12751
Epoch: 2026-04-22T01:59Z
TLE epoch observation values (Epoch: 2026-04-22T01:59:35.946Z)
Latitude
-0.00001°
Longitude
14.34263°
Altitude
482.727 km
Speed
7.626 km/s
True Right ascension
16h 57m 34s
True Declination
0° 00' 00"
Sunlit
Object was in full shadow at epoch
Visualization orbit readout
Latitude
Unknown
Longitude
Unknown
Altitude
Unknown
Speed
Unknown
Apparent Right ascension
Unknown
Apparent Declination
Unknown
Sunlit
N/A
Visualization observer readout
Local Sidereal Time
18:21:56
Azimuth
Unknown
Elevation
Unknown
Doppler factor
Unknown
Orbital elements
Apogee altitude
485.366 km
Perigee altitude
484.49 km
Semi-major axis
6,863.065 km
Eccentricity
0.00006
Inclination
42.9991°
RAAN
254.392°
Arg. of periapsis
274.2069°
True anomaly
85.87829°
Mean anomaly
85.871°
Eccentric anomaly
85.87465°
Mean motion
3.81739 °/min
Orbital period
94.31 mins
BSTAR
0.00092288
Loading maneuver chart data...
Computing Atmospheric mass density...
Loading historical data...
Loading historical data...
Loading historical data...
Loading historical data...
Loading historical data...
Loading historical data...
Loading historical data...

Documentation

Showing up to 5 results
|